Weather History for Panama City, FL

Change the Weather History Date:

Saturday, June 29, 2013

  Actual Average Record
Temperature  
Mean Temperature 79 °F -  
Max Temperature 87 °F - 95 °F (2014)
Min Temperature 71 °F - 68 °F (2012)
Degree Days  
Heating Degree Days 0    
Cooling Degree Days 14    
Growing Degree Days 28 (Base 50)    
Moisture  
Dew Point 72 °F    
Average Humidity 79    
Maximum Humidity 93    
Minimum Humidity 65    
Precipitation  
Precipitation 0.00 in - 0.04 in (2011)
Month to date precipitation  
Year to date precipitation  
Sea Level Pressure  
Sea Level Pressure 29.79 in    
Wind  
Wind Speed 9 mph (SW)    
Max Wind Speed 24 mph    
Max Gust Speed 31 mph    
Visibility 7 miles    
Events Fog , Rain , Thunderstorm    
T = Trace of Precipitation, MM = Missing Value Source: NWS Daily Summary

Daily Weather History Graph

Daily Weather History Graph

Search for Another Location

Airport:

Trip Planner

Search our weather history database for the weather conditions in past years. The results will help you decide how hot, cold, wet, or windy it might be!

Date:

Astronomy

Jun. 29, 2013 Rise Set
Actual Time 6:44 AM EDT 8:49 PM EDT
Civil Twilight 6:16 AM EDT 9:16 PM EDT
Nautical Twilight 5:43 AM EDT 9:50 PM EDT
Astronomical Twilight 5:07 AM EDT 10:26 PM EDT
Moon 12:46 AM EDT (6/29) 1:23 PM EDT (6/29)
Length of Visible Light 15h 00m
Length of Day
14h 05m
Waning Gibbous, 56% of the Moon is Illuminated
Jun 29
Waning Gibbous
Jun 30
Last Quarter
Jul 8
New
Jul 15
First Quarter
Jul 22
Full

Hourly Weather History & Observations

Time (EDT) Temp. Heat Index Dew Point Humidity Pressure Visibility Wind Dir Wind Speed Gust Speed Precip Events Conditions
12:53 AM 75.0 °F - 71.1 °F 87% 29.84 in 10.0 mi Calm Calm - N/A   Partly Cloudy
1:53 AM 75.0 °F - 72.0 °F 90% 29.83 in 8.0 mi NW 3.5 mph - N/A   Scattered Clouds
2:30 AM 75.2 °F - 71.6 °F 89% 29.79 in 8.0 mi NNE 3.5 mph - N/A Thunderstorm Thunderstorm
2:53 AM 75.0 °F - 72.0 °F 90% 29.82 in - North 17.3 mph 20.7 mph N/A Thunderstorm Thunderstorm
3:26 AM 73.4 °F - 69.8 °F 88% 29.75 in 10.0 mi North 21.9 mph 31.1 mph 0.00 in Rain , Thunderstorm Light Thunderstorms and Rain
3:36 AM 73.4 °F - 69.8 °F 88% 29.77 in 6.0 mi NW 16.1 mph 29.9 mph 0.00 in Rain , Thunderstorm Light Thunderstorms and Rain
3:39 AM 71.6 °F - 69.8 °F 94% 29.77 in 2.5 mi North 18.4 mph 26.5 mph N/A Rain , Thunderstorm Heavy Thunderstorms and Rain
3:43 AM 71.6 °F - 69.8 °F 94% 29.78 in 1.0 mi North 19.6 mph 28.8 mph N/A Rain , Thunderstorm Heavy Thunderstorms and Rain
3:51 AM 71.6 °F - 69.8 °F 94% 29.81 in 0.8 mi North 18.4 mph 21.9 mph N/A Rain , Thunderstorm Heavy Thunderstorms and Rain
3:53 AM 72.0 °F - 69.1 °F 91% 29.83 in 0.8 mi North 18.4 mph 21.9 mph N/A Rain , Thunderstorm Heavy Thunderstorms and Rain
4:00 AM 71.6 °F - 69.8 °F 94% 29.77 in 0.5 mi NNW 18.4 mph - N/A Fog , Rain , Thunderstorm Heavy Thunderstorms and Rain
4:13 AM 71.6 °F - 68.0 °F 88% 29.78 in 1.2 mi Calm Calm - N/A Rain , Thunderstorm Heavy Thunderstorms and Rain
4:18 AM 71.6 °F - 68.0 °F 88% 29.77 in - North - - N/A Thunderstorm Thunderstorm
4:35 AM 71.6 °F - 69.8 °F 94% 29.78 in 1.0 mi NE 6.9 mph - N/A Rain , Thunderstorm Heavy Thunderstorms and Rain
4:53 AM 72.0 °F - 69.1 °F 91% 29.84 in - North - - N/A Thunderstorm Thunderstorm
5:53 AM - - - N/A% 29.78 in - North - - N/A Thunderstorm Unknown
7:19 AM - - - N/A% 29.81 in - North - - N/A   Unknown
7:35 AM 75.2 °F - - N/A% 29.80 in 2.0 mi South 5.8 mph - N/A   Mostly Cloudy
7:53 AM 73.0 °F - - N/A% 29.83 in 3.0 mi South 9.2 mph - N/A Rain Light Rain
8:53 AM 73.9 °F - - N/A% 29.84 in 3.0 mi South 9.2 mph - N/A Rain Light Rain
9:53 AM 73.9 °F - - N/A% 29.83 in 3.0 mi South 11.5 mph - N/A Rain Light Rain
10:53 AM 75.0 °F - 71.1 °F 87% 29.82 in 7.0 mi South 8.1 mph - N/A   Scattered Clouds
11:53 AM 78.1 °F - 73.0 °F 84% 29.82 in 10.0 mi South 6.9 mph - N/A   Clear
12:53 PM 82.0 °F 87.4 °F 73.0 °F 74% 29.82 in 10.0 mi SSW 13.8 mph - N/A   Partly Cloudy
1:53 PM 84.9 °F 93.3 °F 75.0 °F 72% 29.80 in 10.0 mi SSW 13.8 mph - N/A   Mostly Cloudy
2:53 PM 84.9 °F 91.4 °F 73.0 °F 67% 29.78 in 10.0 mi SW 13.8 mph - N/A   Mostly Cloudy
3:53 PM 84.0 °F 90.2 °F 73.0 °F 69% 29.79 in 10.0 mi SW 9.2 mph - N/A   Mostly Cloudy
4:53 PM 84.0 °F 89.6 °F 72.0 °F 67% 29.78 in 10.0 mi SSW 13.8 mph - N/A   Scattered Clouds
5:53 PM 84.9 °F 92.1 °F 73.9 °F 69% 29.72 in 10.0 mi SSW 11.5 mph - N/A   Mostly Cloudy
6:53 PM 82.9 °F 88.8 °F 73.0 °F 72% 29.70 in 10.0 mi South 10.4 mph - N/A   Mostly Cloudy
7:53 PM 82.0 °F 89.4 °F 75.9 °F 82% 29.74 in 10.0 mi South 6.9 mph - N/A   Mostly Cloudy
8:53 PM 81.0 °F 86.7 °F 75.0 °F 82% 29.75 in 10.0 mi South 5.8 mph - N/A   Mostly Cloudy
9:53 PM 81.0 °F 87.3 °F 75.9 °F 85% 29.77 in 10.0 mi South 6.9 mph - N/A   Scattered Clouds
10:53 PM 80.1 °F 85.1 °F 75.0 °F 85% 29.78 in 10.0 mi SSW 3.5 mph - N/A   Scattered Clouds
11:09 PM 80.6 °F 86.2 °F 75.2 °F 84% 29.76 in 10.0 mi WNW 3.5 mph - N/A   Mostly Cloudy
11:28 PM 78.8 °F - 75.2 °F 89% 29.75 in 10.0 mi Calm Calm - N/A   Scattered Clouds
11:53 PM 79.0 °F - 75.0 °F 88% 29.78 in 10.0 mi SSE 3.5 mph - N/A   Scattered Clouds